| time (UTC) | temp F | wind direction | speed MPH | gust MPH | rain 1hr in | rain 24hr in | rain mn in | humidity % | barometer mb |
| 20260510174547 | 74 | 74 | 1.0 | 7.0 | 0.00 | 0.00 | 0.00 | 48 | 1016.8 |
| 20260510174030 | 75 | 36 | 1.0 | 7.0 | 0.00 | 0.00 | 0.00 | 47 | 1017.0 |
| 20260510173529 | 74 | 76 | 2.0 | 7.0 | 0.00 | 0.00 | 0.00 | 48 | 1016.9 |
| 20260510173037 | 74 | 86 | 1.0 | 7.0 | 0.00 | 0.00 | 0.00 | 47 | 1017.0 |
| 20260510172531 | 75 | 298 | 3.0 | 7.0 | 0.00 | 0.00 | 0.00 | 42 | 1017.0 |
| 20260510172030 | 74 | 0 | 1.0 | 10.0 | 0.00 | 0.00 | 0.00 | 52 | 1017.1 |
| 20260510171538 | 74 | 69 | 2.0 | 10.0 | 0.00 | 0.00 | 0.00 | 47 | 1017.2 |
| 20260510171029 | 74 | 46 | 2.0 | 7.0 | 0.00 | 0.00 | 0.00 | 47 | 1017.2 |
| 20260510170530 | 75 | 104 | 1.0 | 13.0 | 0.00 | 0.00 | 0.00 | 45 | 1017.3 |
| 20260510170035 | 75 | 88 | 3.0 | 13.0 | 0.00 | 0.00 | 0.00 | 45 | 1017.4 |
| 20260510165530 | 74 | 337 | 2.0 | 7.0 | 0.00 | 0.00 | 0.00 | 46 | 1017.4 |
| 20260510165030 | 74 | 0 | 2.0 | 10.0 | 0.00 | 0.00 | 0.00 | 48 | 1017.2 |
| 20260510164538 | 76 | 89 | 2.0 | 10.0 | 0.00 | 0.00 | 0.00 | 46 | 1017.2 |
| 20260510164031 | 75 | 234 | 3.0 | 10.0 | 0.00 | 0.00 | 0.00 | 47 | 1017.2 |
| 20260510163530 | 75 | 144 | 1.0 | 10.0 | 0.00 | 0.00 | 0.00 | 47 | 1017.2 |
| 20260510163041 | 75 | 78 | 4.0 | 10.0 | 0.00 | 0.00 | 0.00 | 46 | 1017.2 |
| 20260510162529 | 74 | 167 | 3.0 | 11.0 | 0.00 | 0.00 | 0.00 | 44 | 1017.3 |
| 20260510162030 | 74 | 205 | 4.0 | 11.0 | 0.00 | 0.00 | 0.00 | 42 | 1017.4 |
| 20260510161536 | 76 | 55 | 2.0 | 8.0 | 0.00 | 0.00 | 0.00 | 46 | 1017.3 |
| 20260510161030 | 75 | 101 | 2.0 | 8.0 | 0.00 | 0.00 | 0.00 | 52 | 1017.5 |
| 20260510160529 | 74 | 266 | 3.0 | 10.0 | 0.00 | 0.00 | 0.00 | 46 | 1017.5 |
| 20260510160039 | 75 | 279 | 3.0 | 11.0 | 0.00 | 0.00 | 0.00 | 49 | 1017.5 |
| 20260510155529 | 74 | 307 | 3.0 | 11.0 | 0.00 | 0.00 | 0.00 | 50 | 1017.4 |
| 20260510155030 | 74 | 297 | 3.0 | 10.0 | 0.00 | 0.00 | 0.00 | 48 | 1017.3 |
| 20260510154552 | 73 | 77 | 3.0 | 12.0 | 0.00 | 0.00 | 0.00 | 50 | 1017.4 |
| 20260510154029 | 73 | 84 | 6.0 | 12.0 | 0.00 | 0.00 | 0.00 | 49 | 1017.6 |
| 20260510153530 | 73 | 134 | 5.0 | 11.0 | 0.00 | 0.00 | 0.00 | 52 | 1017.4 |
| 20260510153037 | 73 | 179 | 1.0 | 10.0 | 0.00 | 0.00 | 0.00 | 54 | 1017.4 |
| 20260510152530 | 73 | 313 | 2.0 | 8.0 | 0.00 | 0.00 | 0.00 | 54 | 1017.5 |
| 20260510152030 | 73 | 47 | 2.0 | 10.0 | 0.00 | 0.00 | 0.00 | 53 | 1017.5 |
| 20260510151548 | 73 | 284 | 2.0 | 10.0 | 0.00 | 0.00 | 0.00 | 55 | 1017.6 |
| 20260510151029 | 72 | 294 | 3.0 | 10.0 | 0.00 | 0.00 | 0.00 | 53 | 1017.5 |
| 20260510150530 | 72 | 51 | 2.0 | 9.0 | 0.00 | 0.00 | 0.00 | 55 | 1017.5 |
| 20260510150050 | 72 | 328 | 4.0 | 9.0 | 0.00 | 0.00 | 0.00 | 53 | 1017.5 |
| 20260510145531 | 72 | 0 | 2.0 | 7.0 | 0.00 | 0.00 | 0.00 | 56 | 1017.5 |
| 20260510145030 | 71 | 53 | 2.0 | 9.0 | 0.00 | 0.00 | 0.00 | 55 | 1017.5 |
| 20260510144606 | 70 | 94 | 4.0 | 9.0 | 0.00 | 0.00 | 0.00 | 57 | 1017.6 |
| 20260510144030 | 70 | 236 | 2.0 | 7.0 | 0.00 | 0.00 | 0.00 | 57 | 1017.5 |
| 20260510143529 | 70 | 225 | 2.0 | 7.0 | 0.00 | 0.00 | 0.00 | 61 | 1017.5 |
| 20260510143045 | 70 | 285 | 2.0 | 7.0 | 0.00 | 0.00 | 0.00 | 60 | 1017.5 |
| 20260510142529 | 69 | 235 | 3.0 | 7.0 | 0.00 | 0.00 | 0.00 | 62 | 1017.4 |
| 20260510142029 | 68 | 241 | 3.0 | 8.0 | 0.00 | 0.00 | 0.00 | 64 | 1017.6 |
| 20260510141538 | 68 | 210 | 3.0 | 8.0 | 0.00 | 0.00 | 0.00 | 65 | 1017.6 |
| 20260510141030 | 67 | 188 | 3.0 | 8.0 | 0.00 | 0.00 | 0.00 | 64 | 1017.6 |
| 20260510140532 | 67 | 234 | 4.0 | 8.0 | 0.00 | 0.00 | 0.00 | 64 | 1017.8 |
| 20260510140046 | 67 | 0 | 2.0 | 9.0 | 0.00 | 0.00 | 0.00 | 70 | 1017.7 |
| 20260510135530 | 66 | 238 | 3.0 | 9.0 | 0.00 | 0.00 | 0.00 | 69 | 1017.6 |
| 20260510135030 | 65 | 223 | 3.0 | 9.0 | 0.00 | 0.00 | 0.00 | 69 | 1017.7 |
| 20260510134549 | 64 | 220 | 3.0 | 8.0 | 0.00 | 0.00 | 0.00 | 71 | 1017.7 |
| 20260510134030 | 63 | 254 | 3.0 | 7.0 | 0.00 | 0.00 | 0.00 | 72 | 1017.8 |
| 20260510133530 | 63 | 277 | 2.0 | 7.0 | 0.00 | 0.00 | 0.00 | 72 | 1017.8 |
| 20260510133046 | 62 | 273 | 1.0 | 5.0 | 0.00 | 0.00 | 0.00 | 75 | 1017.9 |
| 20260510132530 | 62 | 148 | 0.0 | 3.0 | 0.00 | 0.00 | 0.00 | 80 | 1017.9 |
| 20260510132029 | 61 | 0 | 1.0 | 3.0 | 0.00 | 0.00 | 0.00 | 82 | 1017.9 |
| 20260510131547 | 59 | 150 | 1.0 | 3.0 | 0.00 | 0.00 | 0.00 | 85 | 1017.9 |
| 20260510131029 | 59 | 150 | 1.0 | 2.0 | 0.00 | 0.00 | 0.00 | 85 | 1017.9 |
| 20260510130530 | 58 | 150 | 0.0 | 3.0 | 0.00 | 0.00 | 0.00 | 89 | 1017.8 |
| 20260510130039 | 56 | 153 | 1.0 | 3.0 | 0.00 | 0.00 | 0.00 | 89 | 1017.7 |
| 20260510125529 | 55 | 150 | 1.0 | 3.0 | 0.00 | 0.00 | 0.00 | 90 | 1017.8 |
| 20260510125029 | 55 | 151 | 1.0 | 4.0 | 0.00 | 0.00 | 0.00 | 91 | 1017.9 |
| 20260510124548 | 54 | 157 | 1.0 | 4.0 | 0.00 | 0.00 | 0.00 | 92 | 1017.9 |
| 20260510124029 | 53 | 161 | 1.0 | 4.0 | 0.00 | 0.00 | 0.00 | 93 | 1018.0 |
| 20260510123530 | 52 | 167 | 1.0 | 4.0 | 0.00 | 0.00 | 0.00 | 93 | 1017.9 |
| 20260510123045 | 51 | 174 | 2.0 | 3.0 | 0.00 | 0.00 | 0.00 | 94 | 1017.9 |
| 20260510122529 | 51 | 213 | 0.0 | 2.0 | 0.00 | 0.00 | 0.00 | 95 | 1017.9 |
| 20260510122030 | 50 | 0 | 0.0 | 2.0 | 0.00 | 0.00 | 0.00 | 95 | 1017.7 |
| 20260510121542 | 49 | 218 | 1.0 | 2.0 | 0.00 | 0.00 | 0.00 | 96 | 1017.7 |
| 20260510121030 | 48 | 224 | 1.0 | 3.0 | 0.00 | 0.00 | 0.00 | 96 | 1017.6 |
| 20260510120533 | 48 | 225 | 0.0 | 3.0 | 0.00 | 0.00 | 0.00 | 96 | 1017.6 |
| 20260510120040 | 47 | 225 | 1.0 | 3.0 | 0.00 | 0.00 | 0.00 | 96 | 1017.5 |
| 20260510115530 | 46 | 246 | 0.0 | 2.0 | 0.00 | 0.00 | 0.00 | 96 | 1017.6 |
| 20260510115033 | 45 | 241 | 0.0 | 1.0 | 0.00 | 0.00 | 0.00 | 96 | 1017.6 |
| 20260510114601 | 44 | 360 | 0.0 | 1.0 | 0.00 | 0.00 | 0.00 | 96 | 1017.5 |
| 20260510114030 | 43 | 0 | 0.0 | 1.0 | 0.00 | 0.00 | 0.00 | 95 | 1017.8 |
| 20260510113529 | 42 | 0 | 0.0 | 1.0 | 0.00 | 0.00 | 0.00 | 95 | 1017.6 |
| 20260510113051 | 42 | 360 | 0.0 | 1.0 | 0.00 | 0.00 | 0.00 | 95 | 1017.6 |
| 20260510112530 | 41 | 360 | 0.0 | 1.0 | 0.00 | 0.00 | 0.00 | 95 | 1017.5 |
| 20260510112030 | 40 | 0 | 0.0 | 1.0 | 0.00 | 0.00 | 0.00 | 95 | 1017.4 |
| 20260510111541 | 40 | 360 | 0.0 | 0.0 | 0.00 | 0.00 | 0.00 | 95 | 1017.3 |
| 20260510111030 | 40 | 0 | 0.0 | 2.0 | 0.00 | 0.00 | 0.00 | 95 | 1017.2 |
| 20260510110530 | 39 | 0 | 0.0 | 2.0 | 0.00 | 0.00 | 0.00 | 95 | 1017.2 |
| 20260510110040 | 39 | 360 | 0.0 | 2.0 | 0.00 | 0.00 | 0.00 | 95 | 1017.0 |
| 20260510105529 | 39 | 360 | 0.0 | 2.0 | 0.00 | 0.00 | 0.00 | 94 | 1016.9 |
| 20260510105029 | 39 | 360 | 0.0 | 2.0 | 0.00 | 0.00 | 0.00 | 94 | 1016.8 |
| 20260510104548 | 39 | 360 | 0.0 | 2.0 | 0.00 | 0.00 | 0.00 | 95 | 1016.7 |
| 20260510104029 | 38 | 0 | 0.0 | 2.0 | 0.00 | 0.00 | 0.00 | 95 | 1016.7 |
| 20260510103530 | 38 | 360 | 0.0 | 2.0 | 0.00 | 0.00 | 0.00 | 94 | 1016.7 |
| 20260510103038 | 38 | 360 | 1.0 | 2.0 | 0.00 | 0.00 | 0.00 | 94 | 1016.4 |
| 20260510102530 | 38 | 0 | 0.0 | 2.0 | 0.00 | 0.00 | 0.00 | 94 | 1016.4 |
| 20260510102029 | 38 | 360 | 0.0 | 2.0 | 0.00 | 0.00 | 0.00 | 94 | 1016.4 |
| 20260510101538 | 38 | 0 | 0.0 | 2.0 | 0.00 | 0.00 | 0.00 | 94 | 1016.4 |
| 20260510101034 | 38 | 360 | 0.0 | 2.0 | 0.00 | 0.00 | 0.00 | 94 | 1016.4 |
| 20260510100530 | 38 | 360 | 0.0 | 2.0 | 0.00 | 0.00 | 0.00 | 94 | 1016.3 |
| 20260510100055 | 39 | 0 | 0.0 | 3.0 | 0.00 | 0.00 | 0.00 | 95 | 1016.3 |
| 20260510095532 | 39 | 360 | 0.0 | 3.0 | 0.00 | 0.00 | 0.00 | 94 | 1016.2 |
| 20260510095029 | 38 | 360 | 1.0 | 3.0 | 0.00 | 0.00 | 0.00 | 94 | 1016.1 |
| 20260510094537 | 39 | 360 | 1.0 | 3.0 | 0.00 | 0.00 | 0.00 | 94 | 1016.1 |
| 20260510094029 | 40 | 0 | 0.0 | 2.0 | 0.00 | 0.00 | 0.00 | 95 | 1016.1 |
| 20260510093529 | 39 | 0 | 0.0 | 2.0 | 0.00 | 0.00 | 0.00 | 94 | 1016.1 |
| 20260510093037 | 39 | 360 | 0.0 | 2.0 | 0.00 | 0.00 | 0.00 | 95 | 1016.1 |
| 20260510092529 | 39 | 0 | 0.0 | 2.0 | 0.00 | 0.00 | 0.00 | 94 | 1016.0 |
| 20260510092030 | 39 | 0 | 1.0 | 2.0 | 0.00 | 0.00 | 0.00 | 94 | 1016.1 |
| 20260510091540 | 38 | 360 | 1.0 | 2.0 | 0.00 | 0.00 | 0.00 | 94 | 1015.9 |
| 20260510091029 | 38 | 360 | 1.0 | 2.0 | 0.00 | 0.00 | 0.00 | 94 | 1015.9 |
| 20260510090529 | 38 | 0 | 0.0 | 2.0 | 0.00 | 0.00 | 0.00 | 94 | 1015.8 |
| 20260510090039 | 38 | 360 | 0.0 | 2.0 | 0.00 | 0.00 | 0.00 | 94 | 1015.8 |
| 20260510085529 | 39 | 0 | 0.0 | 2.0 | 0.00 | 0.00 | 0.00 | 94 | 1015.7 |
| 20260510085032 | 38 | 0 | 0.0 | 2.0 | 0.00 | 0.00 | 0.00 | 94 | 1015.8 |
| 20260510084539 | 39 | 360 | 0.0 | 2.0 | 0.00 | 0.00 | 0.00 | 94 | 1015.7 |
| 20260510084030 | 39 | 0 | 0.0 | 1.0 | 0.00 | 0.00 | 0.00 | 94 | 1015.7 |
| 20260510083530 | 39 | 0 | 0.0 | 2.0 | 0.00 | 0.00 | 0.00 | 95 | 1015.7 |
| 20260510083042 | 38 | 0 | 0.0 | 3.0 | 0.00 | 0.00 | 0.00 | 94 | 1015.6 |
| 20260510082530 | 38 | 360 | 1.0 | 3.0 | 0.00 | 0.00 | 0.00 | 94 | 1015.6 |
| 20260510082028 | 38 | 360 | 1.0 | 3.0 | 0.00 | 0.00 | 0.00 | 94 | 1015.6 |
| 20260510081537 | 39 | 360 | 1.0 | 2.0 | 0.00 | 0.00 | 0.00 | 94 | 1015.6 |
| 20260510081031 | 39 | 360 | 1.0 | 2.0 | 0.00 | 0.00 | 0.00 | 94 | 1015.5 |
| 20260510080530 | 40 | 0 | 0.0 | 2.0 | 0.00 | 0.00 | 0.00 | 94 | 1015.5 |
| 20260510080037 | 40 | 0 | 0.0 | 1.0 | 0.00 | 0.00 | 0.00 | 95 | 1015.5 |
| 20260510075532 | 39 | 0 | 0.0 | 2.0 | 0.00 | 0.00 | 0.00 | 94 | 1015.5 |
| 20260510075029 | 39 | 0 | 0.0 | 3.0 | 0.00 | 0.00 | 0.00 | 94 | 1015.4 |
| 20260510074544 | 39 | 360 | 1.0 | 3.0 | 0.00 | 0.00 | 0.00 | 94 | 1015.3 |
| 20260510074031 | 39 | 360 | 2.0 | 3.0 | 0.00 | 0.00 | 0.00 | 94 | 1015.3 |
| 20260510073530 | 40 | 0 | 1.0 | 3.0 | 0.00 | 0.00 | 0.00 | 94 | 1015.3 |
| 20260510073044 | 40 | 360 | 1.0 | 3.0 | 0.00 | 0.00 | 0.00 | 94 | 1015.2 |
| 20260510072530 | 40 | 360 | 2.0 | 3.0 | 0.00 | 0.00 | 0.00 | 94 | 1015.3 |
| 20260510072030 | 40 | 0 | 1.0 | 2.0 | 0.00 | 0.00 | 0.00 | 94 | 1015.3 |
| 20260510071539 | 40 | 360 | 0.0 | 2.0 | 0.00 | 0.00 | 0.00 | 94 | 1015.2 |
| 20260510071033 | 40 | 360 | 0.0 | 2.0 | 0.00 | 0.00 | 0.00 | 94 | 1015.1 |
| 20260510070529 | 39 | 0 | 0.0 | 2.0 | 0.00 | 0.00 | 0.00 | 94 | 1014.9 |
| 20260510070052 | 39 | 360 | 0.0 | 2.0 | 0.00 | 0.00 | 0.00 | 93 | 1014.9 |
| 20260510065536 | 40 | 0 | 1.0 | 2.0 | 0.00 | 0.00 | 0.00 | 93 | 1014.8 |
| 20260510065033 | 40 | 360 | 0.0 | 2.0 | 0.00 | 0.00 | 0.00 | 94 | 1014.8 |
| 20260510064552 | 40 | 360 | 0.0 | 2.0 | 0.00 | 0.00 | 0.00 | 93 | 1014.9 |
| 20260510064033 | 41 | 0 | 0.0 | 2.0 | 0.00 | 0.00 | 0.00 | 93 | 1014.9 |
| 20260510063534 | 42 | 360 | 0.0 | 2.0 | 0.00 | 0.00 | 0.00 | 94 | 1014.9 |
| 20260510063045 | 42 | 360 | 0.0 | 3.0 | 0.00 | 0.00 | 0.00 | 93 | 1014.9 |
| 20260510062533 | 42 | 360 | 1.0 | 3.0 | 0.00 | 0.00 | 0.00 | 94 | 1015.0 |
| 20260510062033 | 41 | 360 | 2.0 | 3.0 | 0.00 | 0.00 | 0.00 | 94 | 1015.1 |
| 20260510061541 | 41 | 360 | 1.0 | 3.0 | 0.00 | 0.00 | 0.00 | 93 | 1015.1 |
| 20260510061030 | 42 | 0 | 0.0 | 2.0 | 0.00 | 0.00 | 0.00 | 93 | 1015.0 |
| 20260510060530 | 41 | 0 | 0.0 | 2.0 | 0.00 | 0.00 | 0.00 | 93 | 1015.0 |
| 20260510060042 | 41 | 0 | 0.0 | 3.0 | 0.00 | 0.00 | 0.00 | 93 | 1015.0 |
| 20260510055533 | 41 | 360 | 1.0 | 3.0 | 0.00 | 0.00 | 0.00 | 93 | 1014.9 |
| 20260510055034 | 41 | 244 | 2.0 | 3.0 | 0.00 | 0.00 | 0.00 | 93 | 1014.9 |
| 20260510054553 | 42 | 246 | 1.0 | 2.0 | 0.00 | 0.00 | 0.00 | 93 | 1014.9 |
| 20260510054033 | 42 | 246 | 0.0 | 2.0 | 0.00 | 0.00 | 0.00 | 93 | 1014.8 |
| 20260510053534 | 43 | 246 | 0.0 | 1.0 | 0.00 | 0.00 | 0.00 | 94 | 1014.9 |
| 20260510053047 | 42 | 0 | 0.0 | 2.0 | 0.00 | 0.00 | 0.00 | 93 | 1015.0 |
| 20260510052534 | 43 | 0 | 0.0 | 2.0 | 0.00 | 0.00 | 0.00 | 93 | 1014.9 |
| 20260510052032 | 43 | 246 | 1.0 | 2.0 | 0.00 | 0.00 | 0.00 | 93 | 1014.9 |
| 20260510051545 | 42 | 246 | 0.0 | 2.0 | 0.00 | 0.00 | 0.00 | 93 | 1015.0 |
| 20260510051032 | 43 | 0 | 0.0 | 2.0 | 0.00 | 0.00 | 0.00 | 92 | 1014.9 |
| 20260510050535 | 44 | 246 | 0.0 | 3.0 | 0.00 | 0.00 | 0.00 | 93 | 1014.9 |
| 20260510050045 | 43 | 360 | 2.0 | 3.0 | 0.00 | 0.00 | 0.00 | 93 | 1014.9 |
| 20260510045536 | 43 | 360 | 2.0 | 3.0 | 0.00 | 0.00 | 0.00 | 93 | 1014.9 |
| 20260510045030 | 44 | 245 | 0.0 | 2.0 | 0.00 | 0.00 | 0.00 | 92 | 1015.0 |
| 20260510044541 | 45 | 0 | 0.0 | 2.0 | 0.00 | 0.00 | 0.00 | 93 | 1015.0 |
| 20260510044030 | 44 | 0 | 0.0 | 3.0 | 0.00 | 0.00 | 0.00 | 93 | 1015.0 |
| 20260510043530 | 44 | 360 | 1.0 | 3.0 | 0.00 | 0.00 | 0.00 | 93 | 1015.0 |
| 20260510043038 | 44 | 245 | 2.0 | 3.0 | 0.00 | 0.00 | 0.00 | 92 | 1014.9 |
| 20260510042533 | 45 | 0 | 0.0 | 2.0 | 0.00 | 0.00 | 0.00 | 93 | 1014.8 |
| 20260510042029 | 45 | 0 | 0.0 | 2.0 | 0.00 | 0.00 | 0.00 | 93 | 1014.9 |
| 20260510041548 | 45 | 0 | 0.0 | 3.0 | 0.00 | 0.00 | 0.00 | 92 | 1014.9 |
| 20260510041030 | 45 | 360 | 1.0 | 3.0 | 0.00 | 0.00 | 0.00 | 93 | 1014.9 |
| 20260510040530 | 45 | 360 | 1.0 | 3.0 | 0.00 | 0.00 | 0.00 | 93 | 1014.8 |
| 20260510040038 | 45 | 360 | 1.0 | 3.0 | 0.00 | 0.00 | 0.00 | 93 | 1014.8 |
| 20260510035529 | 45 | 0 | 0.0 | 2.0 | 0.00 | 0.00 | 0.00 | 93 | 1014.8 |
| 20260510035031 | 45 | 360 | 0.0 | 2.0 | 0.00 | 0.00 | 0.00 | 92 | 1014.7 |
| 20260510034537 | 46 | 0 | 0.0 | 2.0 | 0.00 | 0.00 | 0.00 | 92 | 1014.7 |
| 20260510034030 | 46 | 360 | 0.0 | 2.0 | 0.00 | 0.00 | 0.00 | 93 | 1014.8 |
| 20260510033529 | 46 | 360 | 0.0 | 2.0 | 0.00 | 0.00 | 0.00 | 93 | 1014.6 |
| 20260510033048 | 46 | 360 | 0.0 | 2.0 | 0.00 | 0.00 | 0.00 | 94 | 1014.6 |
| 20260510032529 | 45 | 360 | 0.0 | 3.0 | 0.00 | 0.00 | 0.00 | 92 | 1014.6 |
| 20260510032030 | 45 | 0 | 0.0 | 3.0 | 0.00 | 0.00 | 0.00 | 92 | 1014.5 |
| 20260510031541 | 45 | 360 | 1.0 | 3.0 | 0.00 | 0.00 | 0.00 | 92 | 1014.4 |
| 20260510031031 | 45 | 360 | 0.0 | 2.0 | 0.00 | 0.00 | 0.00 | 93 | 1014.5 |
| 20260510030531 | 45 | 360 | 1.0 | 3.0 | 0.00 | 0.00 | 0.00 | 92 | 1014.5 |
| 20260510030043 | 45 | 0 | 1.0 | 3.0 | 0.00 | 0.00 | 0.00 | 92 | 1014.5 |
| 20260510025532 | 45 | 360 | 1.0 | 3.0 | 0.00 | 0.00 | 0.00 | 92 | 1014.5 |
| 20260510025030 | 46 | 360 | 0.0 | 3.0 | 0.00 | 0.00 | 0.00 | 92 | 1014.6 |
| 20260510024543 | 46 | 360 | 1.0 | 3.0 | 0.00 | 0.00 | 0.00 | 92 | 1014.5 |
| 20260510024029 | 46 | 360 | 0.0 | 3.0 | 0.00 | 0.00 | 0.00 | 91 | 1014.6 |
| 20260510023530 | 46 | 360 | 0.0 | 3.0 | 0.00 | 0.00 | 0.00 | 91 | 1014.6 |
| 20260510023037 | 46 | 360 | 1.0 | 3.0 | 0.00 | 0.00 | 0.00 | 91 | 1014.5 |
| 20260510022530 | 46 | 0 | 0.0 | 2.0 | 0.00 | 0.00 | 0.00 | 91 | 1014.5 |
| 20260510022029 | 47 | 0 | 0.0 | 3.0 | 0.00 | 0.00 | 0.00 | 90 | 1014.4 |
| 20260510021540 | 47 | 360 | 1.0 | 3.0 | 0.00 | 0.00 | 0.00 | 90 | 1014.3 |
| 20260510021029 | 47 | 360 | 1.0 | 3.0 | 0.00 | 0.00 | 0.00 | 90 | 1014.3 |
| 20260510020529 | 48 | 360 | 0.0 | 2.0 | 0.00 | 0.00 | 0.00 | 89 | 1014.3 |
| 20260510020047 | 48 | 360 | 1.0 | 2.0 | 0.00 | 0.00 | 0.00 | 89 | 1014.1 |
| 20260510015529 | 48 | 246 | 0.0 | 3.0 | 0.00 | 0.00 | 0.00 | 89 | 1014.0 |
| 20260510015034 | 49 | 0 | 0.0 | 3.0 | 0.00 | 0.00 | 0.00 | 89 | 1013.9 |
| 20260510014541 | 49 | 246 | 1.0 | 3.0 | 0.00 | 0.00 | 0.00 | 89 | 1013.8 |
| 20260510014030 | 49 | 0 | 0.0 | 2.0 | 0.00 | 0.00 | 0.00 | 88 | 1013.7 |
| 20260510013530 | 49 | 246 | 0.0 | 2.0 | 0.00 | 0.00 | 0.00 | 88 | 1013.7 |
| 20260510013042 | 50 | 246 | 0.0 | 2.0 | 0.00 | 0.00 | 0.00 | 86 | 1013.5 |
| 20260510012530 | 51 | 246 | 1.0 | 2.0 | 0.00 | 0.00 | 0.00 | 86 | 1013.4 |
| 20260510012030 | 51 | 246 | 0.0 | 2.0 | 0.00 | 0.00 | 0.00 | 86 | 1013.2 |
| 20260510011538 | 51 | 246 | 0.0 | 2.0 | 0.00 | 0.00 | 0.00 | 84 | 1013.1 |
| 20260510011033 | 52 | 246 | 0.0 | 3.0 | 0.00 | 0.00 | 0.00 | 84 | 1012.9 |
| 20260510010532 | 53 | 246 | 1.0 | 3.0 | 0.00 | 0.00 | 0.00 | 83 | 1012.8 |
| 20260510010037 | 53 | 246 | 1.0 | 3.0 | 0.00 | 0.00 | 0.00 | 83 | 1012.8 |
| 20260510005531 | 53 | 246 | 1.0 | 3.0 | 0.00 | 0.00 | 0.00 | 82 | 1012.8 |
| 20260510005035 | 53 | 246 | 0.0 | 3.0 | 0.00 | 0.00 | 0.00 | 82 | 1012.6 |
| 20260510004551 | 54 | 246 | 1.0 | 3.0 | 0.00 | 0.00 | 0.00 | 80 | 1012.5 |
| 20260510004032 | 55 | 246 | 0.0 | 3.0 | 0.00 | 0.00 | 0.00 | 77 | 1012.4 |
| 20260510003532 | 56 | 246 | 1.0 | 3.0 | 0.00 | 0.00 | 0.00 | 76 | 1012.4 |
| 20260510003056 | 57 | 246 | 1.0 | 5.0 | 0.00 | 0.00 | 0.00 | 74 | 1012.3 |
| 20260510002534 | 57 | 0 | 1.0 | 5.0 | 0.00 | 0.00 | 0.00 | 74 | 1012.3 |
| 20260510002033 | 58 | 246 | 2.0 | 5.0 | 0.00 | 0.00 | 0.00 | 72 | 1012.3 |
| 20260510001547 | 60 | 261 | 1.0 | 4.0 | 0.00 | 0.00 | 0.00 | 68 | 1012.3 |
| 20260510001033 | 61 | 280 | 0.0 | 2.0 | 0.00 | 0.00 | 0.00 | 64 | 1012.4 |
| 20260510000530 | 63 | 0 | 0.0 | 4.0 | 0.00 | 0.00 | 0.00 | 61 | 1012.2 |
| 20260510000049 | 63 | 0 | 1.0 | 4.0 | 0.00 | 0.00 | 0.00 | 59 | 1012.1 |
| 20260509235530 | 64 | 275 | 0.0 | 3.0 | 0.00 | 0.00 | 0.00 | 59 | 1012.0 |
| 20260509235032 | 64 | 270 | 1.0 | 3.0 | 0.00 | 0.00 | 0.00 | 59 | 1012.1 |
| 20260509234604 | 65 | 0 | 0.0 | 4.0 | 0.00 | 0.00 | 0.00 | 57 | 1012.0 |
| 20260509234030 | 66 | 270 | 0.0 | 4.0 | 0.00 | 0.00 | 0.00 | 57 | 1011.9 |
| 20260509233535 | 68 | 317 | 0.0 | 4.0 | 0.00 | 0.00 | 0.00 | 53 | 1011.8 |
| 20260509233047 | 69 | 11 | 0.0 | 5.0 | 0.00 | 0.00 | 0.00 | 52 | 1011.8 |
| 20260509232533 | 68 | 330 | 2.0 | 5.0 | 0.00 | 0.00 | 0.00 | 51 | 1011.7 |
| 20260509232032 | 68 | 315 | 2.0 | 5.0 | 0.00 | 0.00 | 0.00 | 50 | 1011.6 |
| 20260509231545 | 69 | 258 | 1.0 | 6.0 | 0.00 | 0.00 | 0.00 | 52 | 1011.5 |
| 20260509231033 | 70 | 0 | 1.0 | 9.0 | 0.00 | 0.00 | 0.00 | 50 | 1011.4 |
| 20260509230532 | 69 | 74 | 2.0 | 9.0 | 0.00 | 0.00 | 0.00 | 49 | 1011.6 |
| 20260509230044 | 70 | 344 | 1.0 | 6.0 | 0.00 | 0.00 | 0.00 | 49 | 1011.6 |
| 20260509225534 | 70 | 228 | 1.0 | 8.0 | 0.00 | 0.00 | 0.00 | 49 | 1011.6 |
| 20260509225034 | 70 | 320 | 2.0 | 8.0 | 0.00 | 0.00 | 0.00 | 50 | 1011.5 |
| 20260509224547 | 70 | 329 | 1.0 | 9.0 | 0.00 | 0.00 | 0.00 | 49 | 1011.4 |
| 20260509224030 | 70 | 341 | 2.0 | 10.0 | 0.00 | 0.00 | 0.00 | 49 | 1011.5 |
| 20260509223530 | 70 | 245 | 4.0 | 10.0 | 0.00 | 0.00 | 0.00 | 48 | 1011.5 |
| 20260509223056 | 71 | 294 | 3.0 | 10.0 | 0.00 | 0.00 | 0.00 | 48 | 1011.6 |
| 20260509222529 | 71 | 249 | 2.0 | 8.0 | 0.00 | 0.00 | 0.00 | 49 | 1011.4 |
| 20260509222035 | 71 | 0 | 2.0 | 9.0 | 0.00 | 0.00 | 0.00 | 47 | 1011.5 |
| 20260509221541 | 71 | 336 | 2.0 | 9.0 | 0.00 | 0.00 | 0.00 | 49 | 1011.6 |
| 20260509221032 | 71 | 271 | 3.0 | 9.0 | 0.00 | 0.00 | 0.00 | 48 | 1011.6 |
| 20260509220530 | 72 | 69 | 3.0 | 10.0 | 0.00 | 0.00 | 0.00 | 48 | 1011.5 |
| 20260509220058 | 73 | 265 | 2.0 | 10.0 | 0.00 | 0.00 | 0.00 | 47 | 1011.6 |
| 20260509215530 | 72 | 360 | 2.0 | 9.0 | 0.00 | 0.00 | 0.00 | 46 | 1011.4 |
| 20260509215035 | 71 | 227 | 1.0 | 9.0 | 0.00 | 0.00 | 0.00 | 51 | 1011.3 |
| 20260509214541 | 71 | 49 | 3.0 | 10.0 | 0.00 | 0.00 | 0.00 | 48 | 1011.4 |
| 20260509214033 | 72 | 332 | 3.0 | 10.0 | 0.00 | 0.00 | 0.00 | 47 | 1011.4 |
| 20260509213533 | 71 | 315 | 3.0 | 8.0 | 0.00 | 0.00 | 0.00 | 49 | 1011.4 |
| 20260509213045 | 72 | 284 | 2.0 | 7.0 | 0.00 | 0.00 | 0.00 | 47 | 1011.3 |
| 20260509212530 | 72 | 291 | 1.0 | 6.0 | 0.00 | 0.00 | 0.00 | 47 | 1011.4 |
| 20260509212033 | 73 | 0 | 1.0 | 7.0 | 0.00 | 0.00 | 0.00 | 46 | 1011.2 |
| 20260509211546 | 73 | 229 | 1.0 | 9.0 | 0.00 | 0.00 | 0.00 | 50 | 1011.1 |
| 20260509211033 | 73 | 298 | 2.0 | 9.0 | 0.00 | 0.00 | 0.00 | 47 | 1011.1 |
| 20260509210530 | 73 | 291 | 3.0 | 9.0 | 0.00 | 0.00 | 0.00 | 48 | 1011.1 |
| 20260509210041 | 72 | 211 | 0.0 | 6.0 | 0.00 | 0.00 | 0.00 | 53 | 1011.0 |
| 20260509205529 | 69 | 76 | 2.0 | 6.0 | 0.00 | 0.00 | 0.00 | 52 | 1011.0 |
| 20260509205030 | 70 | 327 | 1.0 | 6.0 | 0.00 | 0.00 | 0.00 | 49 | 1011.1 |
| 20260509204554 | 70 | 0 | 2.0 | 8.0 | 0.00 | 0.00 | 0.00 | 50 | 1011.1 |
| 20260509204030 | 71 | 190 | 0.0 | 8.0 | 0.00 | 0.00 | 0.00 | 57 | 1011.1 |
| 20260509203531 | 69 | 189 | 2.0 | 8.0 | 0.00 | 0.00 | 0.00 | 49 | 1011.1 |
| 20260509203038 | 71 | 0 | 2.0 | 9.0 | 0.00 | 0.00 | 0.00 | 50 | 1011.0 |
| 20260509202534 | 71 | 95 | 1.0 | 9.0 | 0.00 | 0.00 | 0.00 | 47 | 1011.0 |
| 20260509202033 | 72 | 216 | 3.0 | 9.0 | 0.00 | 0.00 | 0.00 | 48 | 1010.9 |
| 20260509201534 | 70 | 312 | 2.0 | 9.0 | 0.00 | 0.00 | 0.00 | 50 | 1011.0 |
| 20260509201029 | 70 | 257 | 3.0 | 9.0 | 0.00 | 0.00 | 0.00 | 49 | 1010.9 |
| 20260509200530 | 72 | 301 | 2.0 | 9.0 | 0.00 | 0.00 | 0.00 | 47 | 1010.9 |
| 20260509200045 | 72 | 65 | 3.0 | 9.0 | 0.00 | 0.00 | 0.00 | 47 | 1010.8 |
| 20260509195533 | 73 | 329 | 3.0 | 10.0 | 0.00 | 0.00 | 0.00 | 49 | 1010.9 |
| 20260509195033 | 72 | 346 | 3.0 | 10.0 | 0.00 | 0.00 | 0.00 | 50 | 1010.8 |
| 20260509194546 | 71 | 290 | 3.0 | 9.0 | 0.00 | 0.00 | 0.00 | 49 | 1010.8 |
| 20260509194033 | 71 | 327 | 2.0 | 9.0 | 0.00 | 0.00 | 0.00 | 48 | 1010.8 |
| 20260509193532 | 71 | 0 | 4.0 | 9.0 | 0.00 | 0.00 | 0.00 | 49 | 1010.9 |
| 20260509193044 | 70 | 224 | 3.0 | 12.0 | 0.00 | 0.00 | 0.00 | 49 | 1010.7 |
| 20260509192534 | 68 | 278 | 6.0 | 12.0 | 0.00 | 0.00 | 0.00 | 50 | 1010.7 |
| 20260509192031 | 69 | 242 | 2.0 | 15.0 | 0.00 | 0.00 | 0.00 | 52 | 1010.8 |
| 20260509191536 | 68 | 235 | 4.0 | 15.0 | 0.00 | 0.00 | 0.00 | 51 | 1010.8 |
| 20260509191030 | 68 | 259 | 5.0 | 12.0 | 0.00 | 0.00 | 0.00 | 50 | 1010.7 |
| 20260509190532 | 69 | 242 | 2.0 | 13.0 | 0.00 | 0.00 | 0.00 | 50 | 1010.8 |
| 20260509190047 | 69 | 269 | 3.0 | 13.0 | 0.00 | 0.00 | 0.00 | 48 | 1010.8 |
| 20260509185529 | 71 | 198 | 4.0 | 11.0 | 0.00 | 0.00 | 0.00 | 46 | 1010.8 |
| 20260509185032 | 70 | 307 | 4.0 | 11.0 | 0.00 | 0.00 | 0.00 | 48 | 1010.9 |
| 20260509184539 | 70 | 20 | 4.0 | 15.0 | 0.00 | 0.00 | 0.00 | 50 | 1011.0 |
| 20260509184029 | 70 | 223 | 5.0 | 15.0 | 0.00 | 0.00 | 0.00 | 51 | 1011.2 |
| 20260509183529 | 69 | 203 | 2.0 | 8.0 | 0.00 | 0.00 | 0.00 | 48 | 1011.1 |
| 20260509183038 | 70 | 22 | 2.0 | 9.0 | 0.00 | 0.00 | 0.00 | 50 | 1011.0 |
| 20260509182529 | 70 | 169 | 2.0 | 10.0 | 0.00 | 0.00 | 0.00 | 49 | 1011.0 |
| 20260509182029 | 69 | 186 | 2.0 | 11.0 | 0.00 | 0.00 | 0.00 | 49 | 1011.1 |
| 20260509181546 | 68 | 211 | 3.0 | 12.0 | 0.00 | 0.00 | 0.00 | 49 | 1011.1 |
| 20260509181029 | 69 | 259 | 3.0 | 12.0 | 0.00 | 0.00 | 0.00 | 50 | 1011.1 |
| 20260509180533 | 71 | 166 | 2.0 | 10.0 | 0.00 | 0.00 | 0.00 | 48 | 1011.3 |
| 20260509180041 | 70 | 201 | 4.0 | 12.0 | 0.00 | 0.00 | 0.00 | 49 | 1011.3 |
| 20260509175529 | 71 | 259 | 3.0 | 12.0 | 0.00 | 0.00 | 0.00 | 51 | 1011.3 |
| 20260509175032 | 70 | 263 | 5.0 | 12.0 | 0.00 | 0.00 | 0.00 | 51 | 1011.4 |